Hourly Data Report for October 07, 2014

All times are specified in Local Standard Time (LST). Add 1 hour to adjust for Daylight Saving Time where and when it is observed.

CHARLOTTETOWN A
PRINCE EDWARD ISLAND

46°17'21.000" N
63°07'09.000" W
48.50 m
8300301
71706
YYG

Download Data

Hourly Data (October 2014)
Hourly Data Report for October 7, 2014
Temp Definition
°C
Dew Point Temp Definition
°C
Rel Hum Definition
%
Wind Dir Definition
10's deg

Wind Spd Definition
km/h
Visibility Definition
km
Stn Press Definition
kPa
Hmdx Definition


Wind Chill Definition


Weather Definition


TIME
00:00 Legend Double Dagger 6.2 5.9 98 23 4 24.1 101.92     LegendNANA
01:00 Legend Double Dagger 6.9 6.3 96 17 5 24.1 101.97     LegendNANA
02:00 Legend Double Dagger 6.1 5.8 98 18 3 24.1 101.97     Clear
03:00 Legend Double Dagger 6.6 6.5 99 18 3 4.8 101.97     Fog
04:00 Legend Double Dagger 7.1 7.0 99 17 7 0.8 102.01     Fog
05:00 Legend Double Dagger 5.0 4.9 99 36 2 0.8 102.03     Fog
06:00 Legend Double Dagger 5.3 5.2 99 12 9 0.4 102.01     Fog
07:00 Legend Double Dagger 4.9 4.8 99 10 4 24.1 102.10     LegendNANA
08:00 Legend Double Dagger 10.5 9.7 95 13 10 24.1 102.13     Mainly Clear
09:00 Legend Double Dagger 13.5 9.4 76 15 18 24.1 102.16     LegendNANA
10:00 Legend Double Dagger 15.1 8.6 65 16 17 24.1 102.12     LegendNANA
11:00 Legend Double Dagger 15.9 8.5 61 15 17 24.1 102.09     Mainly Clear
12:00 Legend Double Dagger 16.0 7.6 57 17 19 24.1 102.08     LegendNANA
13:00 Legend Double Dagger 16.4 7.7 56 14 20 24.1 101.89     LegendNANA
14:00 Legend Double Dagger 17.8 7.6 51 14 20 24.1 101.83     Mostly Cloudy
15:00 Legend Double Dagger 17.4 7.8 53 15 14 24.1 101.81     LegendNANA
16:00 Legend Double Dagger 17.8 7.4 50 15 19 24.1 101.77     LegendNANA
17:00 Legend Double Dagger 16.3 8.4 59 13 14 24.1 101.77     Mostly Cloudy
18:00 Legend Double Dagger 13.4 9.1 75 12 12 24.1 101.73     LegendNANA
19:00 Legend Double Dagger 14.3 10.2 76 17 21 24.1 101.73     LegendNANA
20:00 Legend Double Dagger 13.9 8.8 71 17 24 24.1 101.71     Cloudy
21:00 Legend Double Dagger 13.1 9.8 80 18 24 24.1 101.72     LegendNANA
22:00 Legend Double Dagger 12.6 10.5 87 17 17 24.1 101.72     LegendNANA
23:00 Legend Double Dagger 12.8 10.4 85 16 18 24.1 101.70     Cloudy

Notes on Data Quality.

Legend

  • E = Estimated
  • M = Missing
  • NA = Not Available
  • ‡ = Partner data that is not subject to review by the National Climate Archives
Date modified: